Regional Weather Roundup
Issued by NWS New Orleans/Baton Rouge, LA

Home | Current Version | Previous Version | Text Only | Print | Product List | Glossary Off
Versions: 1 2 3 4 5 6 7 8 9 10 11 12 13 14 15 16 17 18 19 20 21 22 23 24 25 26 27 28 29 30 31 32 33 34 35 36 37 38 39 40 41 42 43 44 45 46 47 48 49 50

432
ASUS44 KLIX 270501
RWRLIX
NEW ORLEANS REGIONAL WEATHER ROUNDUP
NATIONAL WEATHER SERVICE NEW ORLEANS LA
1200 AM CDT WED AUG 27 2014

NOTE: "FAIR" INDICATES FEW OR NO CLOUDS BELOW 12,000 FEET WITH NO
      SIGNIFICANT WEATHER AND/OR OBSTRUCTIONS TO VISIBILITY.
      SKY/WX - SKY CONDITION AND SIGNIFICANT WEATHER.
      TMP - AIR TEMPERATURE.     DP    - DEWPOINT TEMPERATURE.
      RH  - RELATIVE HUMIDITY.   PRES  - PRESSURE.
      HI  - HEAT INDEX.          WCI   - WIND CHILL INDEX.

*  THESE STATIONS ARE NOT NWS OR FAA STATIONS AND ARE NOT UNDER
   NWS QUALITY CONTROL.

LAZ038-040-048-061>063-065>067-069-270600-
SOUTHEAST LOUISIANA

CITY           SKY/WX    TMP DP  RH WIND       PRES   REMARKS
N.O. AUDUBON     N/A     81  76  85 MISG        N/A
N.O. INTL ARPT PTCLDY    82  72  71 E3        29.98S
N.O. LAKEFRONT PTCLDY    82  74  76 E8        29.98S
N.O. DOWNTOWN*   N/A     82  72  69 CALM      29.98S
SLIDELL        CLEAR     75  72  90 CALM      29.98S
BATON ROUGE    CLEAR     76  73  91 NE3       29.99S
BOOTHVILLE     CLEAR     82  76  81 E6        29.97S
BELLE CHASSE   MOCLDY    79  73  82 NE3       29.97S
BOGALUSA*        N/A     73  69  86 CALM      30.01S
GALLIANO*      NOT AVBL
NEW ROADS*       N/A     74  73  95 CALM      30.00S
GONZALES*        N/A     75  75 100 CALM      29.98S
HAMMOND*       NOT AVBL
HOUMA*         PTCLDY    77  72  83 NE3       29.97S
PORT FOURCHON* MOCLDY    84  77  79 E9        29.97S

$$

MSZ070-080>082-270600-
SOUTHERN MISSISSIPPI

CITY           SKY/WX    TMP DP  RH WIND       PRES   REMARKS
MCCOMB         PTCLDY    75  66  73 CALM      30.02R
GULFPORT       PTCLDY    79  74  84 CALM      29.98S
BILOXI         NOT AVBL
PASCAGOULA     PTCLDY    75  72  90 CALM      29.98F

$$

COASTAL OBSERVATIONS
LAKE AND NEARSHORE STATIONS

STATION/POSITION TIME  TEMP    WIND        PRES    WAVE
                       AIR SEA DIR/SP/G            HT/PER
                 (UTC) (F)     (DEG/KT/KT) (MB)    (FT/S)
PASCAGOULA       0400   82     340/  5/  5 1014.8
WAVELAND YACHT   0400   83      60/  4/  5 1014.7
GRAND ISLE       0400   83 85  100/ 10/ 16 1015.2
SOUTHWEST PASS   0400   85 88  100/ 18/ 21 1014.4
NEW CANAL        0400   82 84   CALM  /  2 1015.6
SHELL BEACH      0400   82 81  110/  7/  9 1014.9

OFFSHORE STATIONS

STATION/POSITION TIME  TEMP    WIND        PRES    WAVE
                       AIR SEA DIR/SP/G            HT/PER
                 (UTC) (F)     (DEG/KT/KT) (MB)    (FT/S)
64 S DAUPHIN ISL 0352   85 86   90/ 14/ 17 1014.7

$$




USA.gov is the U.S. government's official web portal to all federal, state and local government web resources and services.